Vernal, UT

1:44 PM MDT on June 23, 2017 (GMT -0600)
Vernal

Weather History for KVEL - December, 2012

Change the Weather History Date:

Saturday, December 8, 2012

  Actual Average Record
Temperature  
Mean Temperature 32 °F 24 °F  
Max Temperature 45 °F 32 °F 53 °F (1939)
Min Temperature 19 °F 15 °F -18 °F (1978)
Degree Days  
Heating Degree Days 33 41  
Month to date heating degree days 230 321  
Since 1 July heating degree days 1578 1952  
Cooling Degree Days 0 0  
Month to date cooling degree days 0 0  
Year to date cooling degree days 810 511  
Moisture  
Dew Point 11 °F    
Average Humidity 50    
Maximum Humidity 77    
Minimum Humidity 22    
Precipitation  
Precipitation 0.00 in 0.02 in 0.11 in (1985)
Month to date precipitation 0.01 0.14  
Year to date precipitation 4.00 8.81  
Sea Level Pressure  
Sea Level Pressure 29.93 in    
Wind  
Wind Speed 8 mph (NW)    
Max Wind Speed 25 mph    
Max Gust Speed 39 mph    
Visibility 10 miles    
Events      
T = Trace of Precipitation, MM = Missing Value Source: NWS Daily Summary

Daily Weather History Graph

Daily Weather History Graph

Search for Another Location

Airport or City:

Trip Planner

Search our weather history database for the weather conditions in past years. The results will help you decide how hot, cold, wet, or windy it might be!

Date:

Astronomy

Dec. 08, 2012 Rise Set
Actual Time 7:29 AM MST 4:51 PM MST
Civil Twilight 6:58 AM MST 5:21 PM MST
Nautical Twilight 6:24 AM MST 5:56 PM MST
Astronomical Twilight 5:51 AM MST 6:29 PM MST
Moon 1:56 AM MST (12/8) 1:23 PM MST (12/8)
Length of Visible Light 10h 23m
Length of Day
9h 22m
Waning Crescent, 27% of the Moon is Illuminated
Dec 8
Waning Crescent
Dec 13
New
Dec 19
First Quarter
Dec 28
Full
Jan 4
Last Quarter

Hourly Weather History & Observations

Time (MST) Temp. Windchill Dew Point Humidity Pressure Visibility Wind Dir Wind Speed Gust Speed Precip Events Conditions
12:53 AM 25.0 °F 20.7 °F 15.1 °F 66% 29.94 in 10.0 mi West 3.5 mph - N/A   Clear
1:53 AM 25.0 °F 19.3 °F 15.1 °F 66% 29.92 in 10.0 mi West 4.6 mph - N/A   Clear
2:53 AM 19.9 °F 14.9 °F 14.0 °F 78% 29.93 in 10.0 mi NNW 3.5 mph - N/A   Clear
3:53 AM 19.9 °F 13.4 °F 12.9 °F 74% 29.90 in 10.0 mi West 4.6 mph - N/A   Clear
4:53 AM 19.9 °F 13.4 °F 12.9 °F 74% 29.89 in 10.0 mi West 4.6 mph - N/A   Clear
5:53 AM 19.9 °F 14.9 °F 14.0 °F 78% 29.89 in 10.0 mi NNW 3.5 mph - N/A   Clear
6:53 AM 21.9 °F 17.2 °F 14.0 °F 72% 29.89 in 10.0 mi WSW 3.5 mph - N/A   Clear
7:53 AM 21.0 °F 13.4 °F 14.0 °F 74% 29.91 in 10.0 mi West 5.8 mph - N/A   Clear
8:53 AM 28.0 °F - 17.1 °F 63% 29.88 in 10.0 mi Calm Calm - N/A   Clear
9:53 AM 34.0 °F - 18.0 °F 52% 29.88 in 10.0 mi Calm Calm - N/A   Clear
10:53 AM 37.0 °F 33.3 °F 17.1 °F 44% 29.88 in 10.0 mi East 4.6 mph - N/A   Clear
11:53 AM 37.0 °F 31.0 °F 18.0 °F 46% 29.84 in 10.0 mi SSE 8.1 mph - N/A   Clear
12:33 PM 44.6 °F 37.4 °F 10.4 °F 25% 29.78 in 10.0 mi West 16.1 mph 26.5 mph N/A   Clear
12:53 PM 44.1 °F 36.2 °F 9.0 °F 24% 29.79 in 10.0 mi West 18.4 mph 39.1 mph N/A   Clear
1:53 PM 43.0 °F 35.1 °F 7.0 °F 23% 29.80 in 10.0 mi West 17.3 mph 31.1 mph N/A   Clear
2:53 PM 41.0 °F 34.3 °F 8.1 °F 26% 29.85 in 10.0 mi WSW 11.5 mph 25.3 mph N/A   Clear
3:53 PM 39.0 °F 31.4 °F 9.0 °F 29% 29.89 in 10.0 mi WSW 12.7 mph - N/A   Clear
4:53 PM 32.0 °F 23.0 °F 10.0 °F 40% 29.96 in 10.0 mi North 11.5 mph - N/A   Scattered Clouds
5:53 PM 28.9 °F 17.7 °F 7.0 °F 40% 29.99 in 10.0 mi North 15.0 mph - N/A   Clear
6:53 PM 28.9 °F 20.4 °F 8.1 °F 41% 30.01 in 10.0 mi NNE 9.2 mph 17.3 mph N/A   Clear
7:53 PM 27.0 °F 16.1 °F 5.0 °F 39% 30.06 in 10.0 mi NNE 12.7 mph - N/A   Mostly Cloudy
8:53 PM 24.1 °F 12.5 °F 6.1 °F 46% 30.07 in 10.0 mi NE 12.7 mph - N/A   Mostly Cloudy
9:53 PM 23.0 °F 11.1 °F 3.9 °F 44% 30.06 in 10.0 mi NE 12.7 mph - N/A   Mostly Cloudy
10:53 PM 21.9 °F 11.7 °F 3.9 °F 46% 30.06 in 10.0 mi East 9.2 mph - N/A   Mostly Cloudy
11:53 PM 25.0 °F 16.3 °F 1.9 °F 37% 30.07 in 10.0 mi NE 8.1 mph - N/A   Overcast